Meteo pe oră la Dagestanskiye Ogni

Astăzi, 23 Aprilie, Vineri

Timp Temperatura Precipitaţii Vânt Presiune Umiditate
00:00 +14°C° 0 mm 2 m/s 760 mmHg 85%
01:00 +14°C° 0 mm 2 m/s 760 mmHg 86%
02:00 +13°C° 0 mm 3 m/s 760 mmHg 87%
03:00 +12°C° 0 mm 3 m/s 760 mmHg 88%
04:00 +13°C° 0 mm 3 m/s 761 mmHg 84%
05:00 +13°C° 0 mm 4 m/s 761 mmHg 79%
06:00 +13°C° 0 mm 5 m/s 761 mmHg 75%
07:00 +14°C° 0 mm 5 m/s 762 mmHg 74%
08:00 +14°C° 0 mm 6 m/s 762 mmHg 72%
09:00 +15°C° 0 mm 6 m/s 762 mmHg 71%
10:00 +14°C° 0 mm 6 m/s 763 mmHg 73%
11:00 +14°C° 0 mm 6 m/s 763 mmHg 74%
12:00 +14°C° 0 mm 5 m/s 763 mmHg 75%
13:00 +14°C° 0 mm 4 m/s 763 mmHg 73%
14:00 +16°C° 0 mm 3 m/s 763 mmHg 71%
15:00 +16°C° 0 mm 2 m/s 763 mmHg 69%
16:00 +16°C° 0 mm 1 m/s 763 mmHg 69%
17:00 +16°C° 0 mm 1 m/s 763 mmHg 69%
18:00 +16°C° 0 mm 1 m/s 764 mmHg 69%
19:00 +16°C° 0 mm 1 m/s 764 mmHg 72%
20:00 +15°C° 0 mm 2 m/s 764 mmHg 75%
21:00 +14°C° 0 mm 2 m/s 764 mmHg 78%
22:00 +14°C° 0 mm 2 m/s 763 mmHg 76%
23:00 +13°C° 0 mm 3 m/s 763 mmHg 74%

Mâine, 24 Aprilie, Sâmbătă

Timp Temperatura Precipitaţii Vânt Presiune Umiditate
00:00 +13°C° 0 mm 3 m/s 762 mmHg 72%
01:00 +12°C° 0 mm 3 m/s 762 mmHg 72%
02:00 +12°C° 0 mm 3 m/s 761 mmHg 71%
03:00 +12°C° 0 mm 3 m/s 761 mmHg 70%
04:00 +12°C° 0 mm 3 m/s 761 mmHg 69%
05:00 +14°C° 0 mm 2 m/s 761 mmHg 67%
06:00 +14°C° 0 mm 2 m/s 760 mmHg 66%
07:00 +14°C° 0 mm 3 m/s 760 mmHg 62%
08:00 +17°C° 0 mm 3 m/s 760 mmHg 59%
09:00 +18°C° 0 mm 3 m/s 760 mmHg 56%
10:00 +19°C° 0 mm 3 m/s 760 mmHg 55%
11:00 +19°C° 0 mm 4 m/s 759 mmHg 53%
12:00 +20°C° 0 mm 4 m/s 759 mmHg 52%
13:00 +19°C° 0 mm 4 m/s 759 mmHg 54%
14:00 +19°C° 0 mm 4 m/s 759 mmHg 57%
15:00 +18°C° 0 mm 4 m/s 759 mmHg 59%
16:00 +17°C° 0 mm 4 m/s 760 mmHg 62%
17:00 +17°C° 0 mm 3 m/s 760 mmHg 65%
18:00 +16°C° 0 mm 3 m/s 761 mmHg 68%
19:00 +15°C° 0 mm 2 m/s 761 mmHg 70%
20:00 +14°C° 0 mm 2 m/s 761 mmHg 72%
21:00 +14°C° 0 mm 1 m/s 762 mmHg 74%
22:00 +14°C° 0 mm 1 m/s 762 mmHg 74%
23:00 +14°C° 0 mm 1 m/s 761 mmHg 74%

Poimâine, 25 Aprilie, Duminică

Timp Temperatura Precipitaţii Vânt Presiune Umiditate
00:00 +12°C° 0 mm 0 m/s 761 mmHg 73%
01:00 +12°C° 0 mm 0 m/s 761 mmHg 74%
02:00 +13°C° 0 mm 1 m/s 761 mmHg 74%
03:00 +13°C° 0 mm 1 m/s 761 mmHg 74%
04:00 +13°C° 0 mm 0 m/s 761 mmHg 72%
05:00 +13°C° 0 mm 0 m/s 761 mmHg 70%
06:00 +14°C° 0 mm 0 m/s 761 mmHg 68%
07:00 +16°C° 0 mm 1 m/s 761 mmHg 62%
08:00 +18°C° 0 mm 2 m/s 761 mmHg 56%
09:00 +19°C° 0 mm 2 m/s 761 mmHg 50%
10:00 +20°C° 0 mm 3 m/s 761 mmHg 48%
11:00 +20°C° 0 mm 3 m/s 760 mmHg 46%
12:00 +21°C° 0 mm 3 m/s 760 mmHg 45%
13:00 +20°C° 0 mm 3 m/s 760 mmHg 45%
14:00 +20°C° 0 mm 3 m/s 759 mmHg 45%
15:00 +20°C° 0 mm 3 m/s 759 mmHg 45%
16:00 +19°C° 0 mm 2 m/s 759 mmHg 48%
17:00 +18°C° 0 mm 2 m/s 758 mmHg 51%
18:00 +17°C° 0 mm 2 m/s 758 mmHg 54%
19:00 +16°C° 0 mm 2 m/s 758 mmHg 57%
20:00 +15°C° 0 mm 1 m/s 758 mmHg 61%
21:00 +14°C° 0 mm 1 m/s 757 mmHg 64%
22:00 +14°C° 0 mm 1 m/s 756 mmHg 65%
23:00 +14°C° 0 mm 1 m/s 756 mmHg 65%

26 Aprilie, Luni

Timp Temperatura Precipitaţii Vânt Presiune Umiditate
00:00 +14°C° 0 mm 2 m/s 755 mmHg 66%
01:00 +14°C° 0 mm 2 m/s 754 mmHg 66%
02:00 +14°C° 0 mm 1 m/s 754 mmHg 66%
03:00 +14°C° 0 mm 1 m/s 753 mmHg 66%
04:00 +14°C° 0 mm 2 m/s 753 mmHg 66%
05:00 +13°C° 0 mm 4 m/s 754 mmHg 66%
06:00 +13°C° 0 mm 5 m/s 754 mmHg 66%
07:00 +15°C° 0 mm 5 m/s 754 mmHg 61%
08:00 +17°C° 0 mm 4 m/s 754 mmHg 57%
09:00 +18°C° 0 mm 4 m/s 754 mmHg 53%
10:00 +19°C° 0 mm 4 m/s 753 mmHg 52%
11:00 +20°C° 0 mm 4 m/s 753 mmHg 51%
12:00 +21°C° 0 mm 4 m/s 753 mmHg 50%
13:00 +21°C° 0 mm 3 m/s 752 mmHg 50%
14:00 +21°C° 0 mm 3 m/s 752 mmHg 50%
15:00 +21°C° 0 mm 2 m/s 752 mmHg 50%
16:00 +20°C° 0 mm 2 m/s 752 mmHg 55%
17:00 +19°C° 0 mm 2 m/s 752 mmHg 60%
18:00 +18°C° 0 mm 2 m/s 752 mmHg 65%
19:00 +17°C° 0 mm 2 m/s 753 mmHg 68%
20:00 +16°C° 0 mm 2 m/s 753 mmHg 71%
21:00 +16°C° 0 mm 2 m/s 753 mmHg 74%
22:00 +16°C° 0 mm 2 m/s 754 mmHg 74%
23:00 +16°C° 0 mm 2 m/s 754 mmHg 74%

27 Aprilie, Marţi

Timp Temperatura Precipitaţii Vânt Presiune Umiditate
00:00 +16°C° 0 mm 2 m/s 754 mmHg 74%
01:00 +14°C° 0 mm 3 m/s 755 mmHg 76%
02:00 +14°C° 0 mm 4 m/s 755 mmHg 78%
03:00 +13°C° 0 mm 5 m/s 756 mmHg 80%
04:00 +13°C° 0 mm 5 m/s 756 mmHg 81%
05:00 +13°C° 0 mm 4 m/s 757 mmHg 82%
06:00 +13°C° 0 mm 4 m/s 757 mmHg 83%
07:00 +14°C° 0 mm 4 m/s 758 mmHg 81%
08:00 +14°C° 0 mm 4 m/s 758 mmHg 79%
09:00 +14°C° 0 mm 4 m/s 758 mmHg 77%
10:00 +14°C° 0 mm 5 m/s 759 mmHg 78%
11:00 +14°C° 0 mm 5 m/s 759 mmHg 78%
12:00 +14°C° 0 mm 5 m/s 759 mmHg 79%
13:00 +13°C° 0.1 mm 5 m/s 759 mmHg 81%
14:00 +13°C° 0.1 mm 4 m/s 758 mmHg 84%
15:00 +12°C° 0.1 mm 4 m/s 758 mmHg 86%
16:00 +12°C° 0 mm 3 m/s 759 mmHg 88%
17:00 +13°C° 0 mm 2 m/s 759 mmHg 89%
18:00 +13°C° 0 mm 2 m/s 759 mmHg 90%
19:00 +13°C° 0 mm 1 m/s 759 mmHg 90%
20:00 +13°C° 0 mm 1 m/s 760 mmHg 90%
21:00 +13°C° 0 mm 1 m/s 760 mmHg 91%
22:00 +12°C° 0 mm 1 m/s 760 mmHg 92%
23:00 +12°C° 0 mm 1 m/s 760 mmHg 93%

28 Aprilie, Miercuri

Timp Temperatura Precipitaţii Vânt Presiune Umiditate
00:00 +12°C° 0 mm 1 m/s 759 mmHg 93%
01:00 +12°C° 0 mm 1 m/s 759 mmHg 93%
02:00 +11°C° 0 mm 1 m/s 759 mmHg 92%
03:00 +11°C° 0 mm 1 m/s 760 mmHg 92%
04:00 +12°C° 0 mm 1 m/s 760 mmHg 89%
05:00 +13°C° 0 mm 2 m/s 761 mmHg 86%
06:00 +13°C° 0 mm 2 m/s 761 mmHg 83%
07:00 +14°C° 0 mm 2 m/s 762 mmHg 80%
08:00 +14°C° 0 mm 2 m/s 762 mmHg 78%
09:00 +15°C° 0 mm 2 m/s 763 mmHg 76%
10:00 +15°C° 0 mm 2 m/s 763 mmHg 72%
11:00 +15°C° 0 mm 2 m/s 763 mmHg 69%
12:00 +16°C° 0 mm 2 m/s 763 mmHg 65%
13:00 +16°C° 0 mm 2 m/s 763 mmHg 64%
14:00 +16°C° 0 mm 2 m/s 763 mmHg 63%
15:00 +16°C° 0 mm 2 m/s 763 mmHg 62%
16:00 +16°C° 0 mm 2 m/s 763 mmHg 64%
17:00 +15°C° 0 mm 2 m/s 763 mmHg 67%
18:00 +15°C° 0 mm 2 m/s 763 mmHg 69%
19:00 +14°C° 0 mm 2 m/s 763 mmHg 74%
20:00 +13°C° 0 mm 2 m/s 763 mmHg 79%
21:00 +12°C° 0 mm 2 m/s 763 mmHg 84%
22:00 +10°C° 0 mm 2 m/s 763 mmHg 84%
23:00 +10°C° 0 mm 2 m/s 762 mmHg 84%
Arată mai mult

Formular de consimțământ

Meteoprog și furnizorii noștri de servicii pot stoca și accesa date personale, precum cookies, identificatori de dispozitiv sau alte tehnologii similare pe dispozitivul dumneavoastră și procesa astfel de date pentru a personaliza conținutul și reclamele, dar și pentru a oferi caracteristici de social media și pentru a analiza traficul.

  • Stocarea și/sau accesarea informațiilor pe dispozitivul dumneavoastră

    Cookies, identificatori de dispozitiv sau alte informații pot fi stocate sau accesate pe dispozitiv în scopurile indicate mai sus.

  • Reclame și conținut personalizat, evaluarea reclamelor și a conținutului, informații despre audiențe și dezvoltarea produselor

    Reclamele și conținutul pot fi personalizate pe baza unui profil. Pot fi adăugate date suplimentare pentru a personaliza mai bine reclamele și conținutul. Performanța reclamelor și conținutului poate fi măsurată. Pot fi obținute informații despre utilizatorii care au văzut reclamele și conținutul. Aceste date pot fi utilizate pentru a dezvolta sau îmbunătăți experiența utilizatorilor, sistemele și software-ul.

Dând clic pe ‘Sunt de acord’, permiteți utilizarea cookie-urilor menționate, a identificatorilor de dispozitiv, balizelor web sau altor tehnologii similare. Setările pot fi modificate din browser-ul dispozitivului dumneavoastră.

În anumite scopuri, interesele legitime pot prima asupra consimțământului. Puteți citi mai multe informații în acest sens în Politica privind Confidențialitatea Datelor și Cookie.